Weather Roundup
Issued by NWS Chicago, IL

Home | Current Version | Previous Version | Graphics & Text | Print | Product List | Glossary On
Versions: 1 2 3 4 5 6 7 8 9 10 11 12 13 14 15 16 17 18 19 20 21 22 23 24 25 26 27 28 29 30 31 32 33 34 35 36 37 38 39 40 41 42 43 44 45 46 47 48 49 50
000
NZUS59 KLOT 010910
HRRLOT

CHICAGO AREA WEATHER ROUNDUP
NATIONAL WEATHER SERVICE CHICAGO/ROMEOVILLE IL
400 AM CDT WED OCT 01 2014

NOTE: "FAIR" INDICATES FEW OR NO CLOUDS BELOW 12,000 FEET WITH NO
SIGNIFICANT WEATHER AND/OR OBSTRUCTIONS TO VISIBILITY.

* THESE STATIONS ARE NOT UNDER NWS QUALITY CONTROL. THEY ALSO MAY NOT
  REPORT WEATHER SUCH AS PRECIPITATION OR FOG.

ILZ005-006-012>014-019>023-011000-
NORTHEAST ILLINOIS

CITY           SKY/WX    TMP DP  RH WIND       PRES   REMARKS
OHARE          CLOUDY    54  46  74 SE6       30.00S
MIDWAY         PTCLDY    54  46  74 SE3       30.00S
AURORA         CLEAR     50  44  80 SE8       30.00F
LANSING*       CLEAR     46  44  95 CALM      30.01S
JOLIET*        CLEAR     47  45  90 CALM      30.00S
WAUKEGAN       CLOUDY    54  47  77 SE5       30.00S
DUPAGE AIRPORT PTCLDY    52  45  77 E6        29.99F
WHEELING       CLOUDY    56  47  71 S5        30.02S
KANKAKEE*      CLEAR     45  44  96 E3        30.01S
MORRIS*        CLEAR     48  47  96 E3        29.99F
LEWIS AIRPORT* CLEAR     47  44  92 E5        30.01S
NORTHERLY IS     N/A     56  47  71 E12         N/A
$$

WIZ051-052-058>065-066-070>072-011000-
SOUTHEAST WISCONSIN

CITY           SKY/WX    TMP DP  RH WIND       PRES   REMARKS
MILWAUKEE      CLOUDY    56  50  80 SE9       30.00S
KENOSHA*       CLOUDY    55  48  77 SE7       30.01S
RACINE*        CLOUDY    56  47  71 SE7       30.02S
BURLINGTON     CLOUDY    50  49  95 E5        29.99F
WAUKESHA       CLOUDY    48  46  93 E3        30.00F
WEST BEND      CLOUDY    50  46  87 CALM      30.02S
$$

INZ001>003-010>013-019-020-011000-
NORTHWEST INDIANA

CITY           SKY/WX    TMP DP  RH WIND       PRES   REMARKS
GARY*          CLEAR     46  43  91 CALM      30.02R
MICHIGAN CITY* NOT AVBL
RENSSELAER*    NOT AVBL
VALPARAISO     CLEAR     45  43  93 NE3       30.01R
$$

LMZ740>746-011000-
SOUTHERN LAKE MICHIGAN

STATION/POSITION TIME  SKY/WX   TEMP WIND        PRES    VSBY
                                AIR  DIR/SP/G
                 (UTC)          (F)  (DEG/KT/KT) (MB)    (MI)
HARRISON CRIB    0900            56  130/ 13/ 18   N/A
BURNHAM HARBOR   0900            56  100/ 10/ 13   N/A
CALUMET HARBOR   0900            56  110/  8/ 11 1014.9S
BURNS HARBOR     NOT AVBL
MICHIGAN CITY    0900            53   90/  3/  4   N/A
$$

ABBREVIATIONS USED IN REMARKS
   TC - TEMPERATURE IN CELSIUS
  WCI - WIND CHILL INDEX
   HX - HEAT INDEX
  VSB - VISIBILITY
$$



USA.gov is the U.S. government's official web portal to all federal, state and local government web resources and services.